Location: Izdebno
(52.6670°N, 16.2170°E)
Time: 03:10:15
(UTC+02:00)

Transit 2A - Pass Details

Date: 24 February 2024
Orbit: 596 x 956 km, 66.7° (Epoch: 21 April)

Event Time Altitude Azimuth Distance (km) Brightness Sun altitude
Rises 01:28:14 0° 315° (NW) 2,890 - -44.1°
Reaches altitude 10° 01:31:07 10° 336° (NNW) 2,021 - -43.9°
Maximum altitude 01:34:12 18° 19° (NNE) 1,621 - -43.7°
Drops below altitude 10° 01:37:26 10° 61° (ENE) 2,134 - -43.4°
Exits shadow 01:39:26 - 75° (ENE) 2,729 9.3 -43.3°
Sets 01:40:36 0° 81° (E) 3,122 9.6 -43.2°
